sat.trackr.live / text

‹ back to catalog

GSAT0208 (GALILEO 11)

NORAD 41175 · 2015-079B

PAYLOAD ACTIVE UNKNOWN

§ Identity

Operator
Country
ESA
Launch date
2015-12-17
Launch site
FRGUI
Launch vehicle
Mass (kg)
RCS (m²)
9.95

Purposes: earth_obs, nav

External: N2YO · Heavens-Above · Gunter

§ Orbital elements

Epoch: 2026-09-15T14:14:47.600736Z

Period
844.70 min
Inclination
55.8828°
Eccentricity
0.0003251
Mean motion
1.70473800 rev/d
Perigee alt
23,212.6 km
Apogee alt
23,231.8 km
Semi-major
29,600.3 km
B*
0.0000e+0
RAAN
98.7769°
Arg perigee
27.6372°
Mean anomaly
332.4529°
Rev number
6,673

§ Raw data

GSAT0208 (GALILEO 11)1 41175U 15079B   26258.59360649  .00000004  00000+0  00000+0 0  99972 41175  55.8828  98.7769 0003251  27.6372 332.4529  1.70473800 66730

JSON: /api/v1/satellites/41175 · /tle

For live sub-satellite position, see the globe view (requires WebGL).

§ Visibility from observer

Set your observer location to see the next 7 days of passes ≥ 10°. The values pass through the URL so the page stays shareable.

No JS? Fill the form by hand. The geolocation button needs JavaScript.